Content
SEND FEEDBACK

Daily
Averages
Monthly
Summary
United States of America

HASTINGS, FLORIDA


Home > North America > United States > Florida
Elevation: 0 feet     Latitude: 29 45N     Longitude: 081 31W

WEATHER
 
SELECT A DAY
Number of Records: 344,090;   Date Range: 7/1/96 - 12/16/14
 
SHARE

PRINT THIS DATA

[ ← Previous Day ]
WEATHER ALMANAC - JANUARY 23, 2013
[ Next Day → ]
[ °C ]   °F
Weather ElementAverageHighLow
Temperature49.9 °F59 °F (2:58 pm)39.9 °F (5:58 am)
Dewpoint35.7 °F41 °F (11:58 pm)28.9 °F (2:58 am)
Humidity59.1 %77 % (11:58 pm)44 % (1:58 pm)
Barometer30.35 in30.43 in (10:58 am)30.31 in (7:58 pm)
Wind Speed6.8 mph11.5 mph (9:58 am)
Wind Gust19.6 mph (1:58 pm)
Weather ElementAverage
Visibility10 mi
Wind DirectionSSW (207 °)

Weather ElementTotal
Precipitation---
Heating Degree Days15.6 (Base 65)
Averaged from 23 records on January 23, 2013
WEATHER CONDITIONS BREAKOUT
WIND DIRECTION BREAKOUT
WEATHER BY HOUR - JANUARY 23, 2013
[ °C ]   °F
Local TimeTemperatureDewpointHumidityBarometerVisibilityWind DirectionWind SpeedGust SpeedPrecipitationEventsConditions
1:58 AM45.0 °F30.9 °F58 %30.32 in10.0 miNNW (330°)6.9 mphClear
2:58 AM44.1 °F28.9 °F55 %30.32 in10.0 miNW (320°)6.9 mphClear
3:58 AM44.1 °F28.9 °F55 %30.33 in10.0 miNW (310°)5.8 mphClear
4:58 AM41.0 °F30.0 °F65 %30.34 in10.0 miWNW (300°)4.6 mphClear
5:58 AM39.9 °F30.9 °F70 %30.35 in10.0 miWNW (290°)3.5 mphClear
6:58 AM39.9 °F30.0 °F68 %30.37 in10.0 miNW (310°)4.6 mphClear
7:58 AM41.0 °F30.0 °F65 %30.38 in10.0 miNW (310°)5.8 mphClear
8:58 AM46.9 °F36.0 °F66 %30.40 in10.0 miNNW (330°)6.9 mphClear
9:58 AM52.0 °F37.0 °F57 %30.42 in10.0 miNorth (350°)11.5 mphClear
10:58 AM55.0 °F37.0 °F51 %30.43 in10.0 miNNE (20°)11.5 mphClear
11:58 AM55.9 °F37.0 °F49 %30.41 in10.0 miNNE (30°)10.4 mphClear
12:58 PM57.0 °F36.0 °F45 %30.36 in10.0 miNNE (30°)10.4 mphClear
1:58 PM57.9 °F36.0 °F44 %30.33 in10.0 miNE (40°)9.2 mph19.6 mphClear
2:58 PM59.0 °F37.0 °F44 %30.32 in10.0 miENE (70°)8.1 mphClear
3:58 PM57.9 °F37.0 °F46 %30.32 in10.0 miENE (70°)6.9 mphClear
4:58 PM57.9 °F39.0 °F49 %30.32 in10.0 miSSE (150°)5.8 mphClear
5:58 PM55.0 °F39.0 °F55 %30.32 in10.0 miSouth (180°)3.5 mphClear
6:58 PM52.0 °F39.9 °F63 %30.32 in10.0 miSSW (200°)3.5 mphClear
7:58 PM50.0 °F39.9 °F68 %30.31 in10.0 miSSW (210°)5.8 mphClear
8:58 PM50.0 °F39.9 °F68 %30.32 in10.0 miSSW (210°)4.6 mphClear
9:58 PM48.9 °F39.9 °F71 %30.32 in10.0 miSW (230°)6.9 mphClear
10:58 PM48.9 °F39.9 °F71 %30.32 in10.0 miWSW (240°)6.9 mphClear
11:58 PM48.0 °F41.0 °F77 %30.31 in10.0 miSW (230°)5.8 mphClear
Hourly data recorded from KSGJ, located miles away from Hastings, Florida







STORIES FROM OUR PARTNERS